This demonstration page uses our WeatherBlox Daily Observations layout. Learn more.

Left ArrowRight Arrow

Hourly Observations for March 16, 2020

Temp ( °F °C ) Dew Point ( °F °C ) Humidity (%) Winds ( mph kmh ) Pressure ( in mb ) Visibility ( mi km ) Precip ( " mm )
12:53 am 00:53 Cloudy 10 -12.2 4 -15.6 76 76 SW 12 19 30.53 1034 10 16 N/A
1:53 am 01:53 Cloudy with Light Snow 10 -12.2 5 -15 80 80 WSW 9 15 30.53 1034 7 11 0.00 0.00
2:53 am 02:53 Cloudy 9 -12.8 4 -15.6 80 80 SW 10 17 30.53 1034 10 16 0.00 0.00
3:53 am 03:53 Cloudy 8 -13.3 3 -16.1 80 80 SW 21 33 30.52 1034 10 16 N/A
4:53 am 04:53 Cloudy 3 -16.1 -1 -18.3 83 83 SW 20 31 30.53 1034 10 16 N/A
5:53 am 05:53 Cloudy 2 -16.7 -3 -19.4 80 80 SW 13 20 30.53 1034 10 16 N/A
6:53 am 06:53 Partly Cloudy -5 -20.6 -9 -22.8 83 83 SW 13 20 30.55 1034 10 16 N/A
7:53 am 07:53 Sunny -5 -20.6 -10 -23.3 79 79 WNW 5 7 30.56 1035 10 16 N/A
8:53 am 08:53 Cloudy -1 -18.3 -6 -21.1 79 79 SW 16 26 30.54 1034 10 16 N/A
9:53 am 09:53 Sunny 2 -16.7 -5 -20.6 72 72 SW 15 24 30.55 1034 10 16 N/A
10:53 am 10:53 Sunny 6 -14.4 -1 -18.3 73 73 SW 21 33 30.53 1034 10 16 N/A
11:53 am 11:53 Sunny 9 -12.8 1 -17.2 70 70 SW 15 24 30.53 1034 10 16 N/A
12:53 pm 12:53 Sunny 12 -11.1 3 -16.1 67 67 SW 16 26 30.51 1033 10 16 N/A
1:53 pm 13:53 Sunny 15 -9.4 5 -15 64 64 WSW 16 26 30.48 1032 10 16 N/A
2:53 pm 14:53 Sunny 18 -7.8 6 -14.4 59 59 SW 16 26 30.44 1031 10 16 N/A
3:53 pm 15:53 Sunny 19 -7.2 8 -13.3 62 62 SW 17 28 30.42 1030 10 16 N/A
4:53 pm 16:53 Sunny 20 -6.7 9 -12.8 62 62 SW 15 24 30.40 1030 10 16 N/A
5:53 pm 17:53 Sunny 21 -6.1 10 -12.2 62 62 SW 13 20 30.36 1028 10 16 N/A
6:53 pm 18:53 Sunny 19 -7.2 10 -12.2 68 68 SW 14 22 30.36 1028 10 16 N/A
7:53 pm 19:53 Clear 12 -11.1 6 -14.4 77 77 SW 14 22 30.36 1028 10 16 N/A
8:53 pm 20:53 Clear 10 -12.2 5 -15 80 80 SW 9 15 30.33 1027 10 16 N/A
9:53 pm 21:53 Clear 7 -13.9 2 -16.7 80 80 SW 13 20 30.31 1027 10 16 N/A
10:53 pm 22:53 Clear 6 -14.4 2 -16.7 83 83 SSW 9 15 30.28 1026 10 16 N/A
11:53 pm 23:53 Clear 7 -13.9 1 -17.2 76 76 N N/A 30.24 1024 10 16 N/A

Powered by AerisWeather